KF6GPE Weather Reports


time (UTC)temp
F
wind
direction
speed
knots
gust
knots
rain 1hr
in
rain 24hr
in
rain mn
in
humidity
%
barometer
mb
20260507075004 52 0 0.0 0.0 0.00 0.00 0.00 95 992.1
20260507074002 52 238 0.0 0.9 0.00 0.00 0.00 95 992.1
20260507073004 52 0 0.0 0.0 0.00 0.00 0.00 94 992.2
20260507072003 52 173 0.0 0.9 0.00 0.00 0.00 94 992.2
20260507071004 52 0 0.0 0.0 0.00 0.00 0.00 94 992.2
20260507070008 52 162 0.0 0.0 0.00 0.00 0.00 94 992.2
20260507065003 52 106 0.0 0.9 0.00 0.00 0.00 94 992.2
20260507064002 52 158 0.0 0.9 0.00 0.00 0.00 94 992.1
20260507063004 52 0 0.0 0.0 0.00 0.00 0.00 94 992.1
20260507062004 52 178 0.9 0.9 0.00 0.00 0.00 94 992.1
20260507061005 52 202 0.0 0.9 0.00 0.00 0.00 94 992.2
20260507060002 53 0 0.0 0.0 0.00 0.00 0.00 94 992.2
20260507055003 53 0 0.0 0.0 0.00 0.00 0.00 94 992.2
20260507054003 53 208 0.0 0.0 0.00 0.00 0.00 94 992.2
20260507053004 53 0 0.0 0.0 0.00 0.00 0.00 94 992.3
20260507052003 53 144 0.0 0.9 0.00 0.00 0.00 93 992.3
20260507051003 53 92 0.0 0.9 0.00 0.00 0.00 93 992.3
20260507050003 53 87 0.0 0.9 0.00 0.00 0.00 93 992.3
20260507045003 53 208 0.9 2.6 0.00 0.00 0.00 93 992.3
20260507044004 53 207 0.9 1.7 0.00 0.00 0.00 93 992.3
20260507043003 53 176 0.0 1.7 0.00 0.00 0.00 93 992.3
20260507042003 54 145 0.9 1.7 0.00 0.00 0.00 93 992.2
20260507041002 54 210 0.9 1.7 0.00 0.00 0.00 93 992.1
20260507040004 54 188 0.9 1.7 0.00 0.00 0.00 92 992.0
20260507035002 54 117 0.0 0.9 0.00 0.00 0.00 92 992.0
20260507034003 54 174 1.7 2.6 0.00 0.00 0.00 92 991.9
20260507033004 55 210 0.9 1.7 0.00 0.00 0.00 92 991.8
20260507032003 55 138 0.9 1.7 0.00 0.00 0.00 91 991.8
20260507031004 55 144 0.9 1.7 0.00 0.00 0.00 91 991.7
20260507030002 55 172 0.9 1.7 0.00 0.00 0.00 91 991.5
20260507025003 55 134 1.7 2.6 0.00 0.00 0.00 91 991.5
20260507024003 56 143 0.9 1.7 0.00 0.00 0.00 90 991.3
20260507023004 56 146 0.0 1.7 0.00 0.00 0.00 90 991.3
20260507022004 56 168 1.7 2.6 0.00 0.00 0.00 89 991.3
20260507021003 57 142 1.7 1.7 0.00 0.00 0.00 88 991.2
20260507020004 58 133 2.6 3.5 0.00 0.00 0.00 87 991.3
20260507015003 58 94 1.7 2.6 0.00 0.00 0.00 85 991.2
20260507014004 59 141 1.7 3.5 0.00 0.00 0.00 84 991.2
20260507013002 60 104 1.7 3.5 0.00 0.00 0.00 83 991.1
20260507012004 60 124 1.7 2.6 0.00 0.00 0.00 82 991.1
20260507011004 61 265 0.9 1.7 0.00 0.00 0.00 80 991.1
20260507010004 62 154 0.9 1.7 0.00 0.00 0.00 79 991.1
20260507005004 63 133 1.7 2.6 0.00 0.00 0.00 77 991.0
20260507004003 64 108 1.7 2.6 0.00 0.00 0.00 77 990.9
20260507003004 65 82 0.9 1.7 0.00 0.00 0.00 76 990.8
20260507002002 66 145 2.6 3.5 0.00 0.00 0.00 72 990.8
20260507001004 67 80 0.9 1.7 0.00 0.00 0.00 72 990.8
20260507000005 67 153 0.9 2.6 0.00 0.00 0.00 70 990.7
20260506235004 68 113 2.6 4.3 0.00 0.00 0.00 70 990.6
20260506234004 68 179 0.0 1.7 0.00 0.00 0.00 70 990.5
20260506233003 68 118 1.7 3.5 0.00 0.00 0.00 69 990.6
20260506232003 69 225 1.7 2.6 0.00 0.00 0.00 68 990.7
20260506231003 70 151 0.9 1.7 0.00 0.00 0.00 67 990.7
20260506230003 71 182 0.0 0.0 0.00 0.00 0.00 66 990.8
20260506225004 71 134 2.6 5.2 0.00 0.00 0.00 66 990.9
20260506224003 72 151 2.6 4.3 0.00 0.00 0.00 64 990.9
20260506223003 72 150 2.6 2.6 0.00 0.00 0.00 63 990.9
20260506222004 74 166 2.6 4.3 0.00 0.00 0.00 61 990.9
20260506221003 74 169 1.7 3.5 0.00 0.00 0.00 60 991.0
20260506220003 74 143 1.7 2.6 0.00 0.00 0.00 61 991.1
20260506215004 74 171 2.6 5.2 0.00 0.00 0.00 62 991.1
20260506214003 75 183 0.9 1.7 0.00 0.00 0.00 61 991.3
20260506213003 74 207 2.6 5.2 0.00 0.00 0.00 61 991.3
20260506212002 74 205 2.6 3.5 0.00 0.00 0.00 60 991.4
20260506211003 74 146 1.7 2.6 0.00 0.00 0.00 62 991.5
20260506210005 75 139 1.7 2.6 0.00 0.00 0.00 60 991.5
20260506205003 75 123 1.7 2.6 0.00 0.00 0.00 61 991.6
20260506204003 75 210 1.7 2.6 0.00 0.00 0.00 61 991.6
20260506203003 74 231 1.7 3.5 0.00 0.00 0.00 64 991.7
20260506202002 74 22 1.7 3.5 0.00 0.00 0.00 62 991.8
20260506201004 74 225 1.7 2.6 0.00 0.00 0.00 58 991.9
20260506200003 74 208 1.7 3.5 0.00 0.00 0.00 56 991.9
20260506195004 74 105 2.6 4.3 0.00 0.00 0.00 59 992.1
20260506194004 72 26 1.7 3.5 0.00 0.00 0.00 62 992.1
20260506193004 71 97 1.7 3.5 0.00 0.00 0.00 61 992.1
20260506192003 71 201 0.9 1.7 0.00 0.00 0.00 62 992.2
20260506191004 70 215 1.7 3.5 0.00 0.00 0.00 62 992.4
20260506190004 71 197 2.6 3.5 0.00 0.00 0.00 61 992.4
20260506185004 69 0 0.0 0.0 0.00 0.00 0.00 64 992.4
20260506184004 69 72 0.0 0.9 0.00 0.00 0.00 64 992.5
20260506183004 69 101 2.6 2.6 0.00 0.00 0.00 65 992.6
20260506182003 68 66 1.7 1.7 0.00 0.00 0.00 67 992.7
20260506181004 68 24 0.9 1.7 0.00 0.00 0.00 67 992.7
20260506180005 67 56 0.0 0.9 0.00 0.00 0.00 69 992.8
20260506175003 66 77 0.9 0.9 0.00 0.00 0.00 69 992.8
20260506174002 65 212 1.7 2.6 0.00 0.00 0.00 72 992.9
20260506173003 63 124 1.7 2.6 0.00 0.00 0.00 71 992.9
20260506172003 62 116 0.9 1.7 0.00 0.00 0.00 75 993.0
20260506171006 60 140 1.7 1.7 0.00 0.00 0.00 77 993.0
20260506170004 60 88 1.7 2.6 0.00 0.00 0.00 78 993.0
20260506165003 60 89 1.7 2.6 0.00 0.00 0.00 78 993.0
20260506164002 58 50 1.7 2.6 0.00 0.00 0.00 80 993.0
20260506163003 57 159 1.7 1.7 0.00 0.00 0.00 84 993.1
20260506162003 56 159 0.9 0.9 0.00 0.00 0.00 86 993.2
20260506161003 55 0 0.0 0.0 0.00 0.00 0.00 90 993.1
20260506160004 55 134 0.9 1.7 0.00 0.00 0.00 89 993.2
20260506155003 54 47 0.0 0.0 0.00 0.00 0.00 93 993.1
20260506154004 53 0 0.0 0.0 0.00 0.00 0.00 94 993.2
20260506153003 52 73 0.0 0.0 0.00 0.00 0.00 96 993.1
20260506152003 52 87 0.0 0.9 0.00 0.00 0.00 96 993.1
20260506151003 51 0 0.0 0.0 0.00 0.00 0.00 96 993.2
20260506150004 51 75 0.0 0.0 0.00 0.00 0.00 96 993.2
20260506145003 51 0 0.0 0.0 0.00 0.00 0.00 96 993.2
20260506143003 50 0 0.0 0.0 0.00 0.00 0.00 96 993.2
20260506142002 50 0 0.0 0.0 0.00 0.00 0.00 96 993.1
20260506141003 50 0 0.0 0.0 0.00 0.00 0.00 96 993.1
20260506140003 50 0 0.0 0.0 0.00 0.00 0.00 96 993.0
20260506135002 50 0 0.0 0.0 0.00 0.00 0.00 96 992.9
20260506134003 50 0 0.0 0.0 0.00 0.00 0.00 95 992.7
20260506133003 50 0 0.0 0.0 0.00 0.00 0.00 95 992.6
20260506132003 50 0 0.0 0.0 0.00 0.00 0.00 95 992.5
20260506131003 50 0 0.0 0.0 0.00 0.00 0.00 95 992.4
20260506130003 51 0 0.0 0.0 0.00 0.00 0.00 95 992.3
20260506125003 51 236 0.0 0.9 0.00 0.00 0.00 95 992.3
20260506124003 51 0 0.0 0.0 0.00 0.00 0.00 95 992.2
20260506123003 51 0 0.0 0.0 0.00 0.00 0.00 95 992.1
20260506122003 52 0 0.0 0.0 0.00 0.00 0.00 94 992.1
20260506121003 52 0 0.0 0.0 0.00 0.00 0.00 94 992.0
20260506120003 52 208 0.0 0.0 0.00 0.00 0.00 94 992.0
20260506115003 52 0 0.0 0.0 0.00 0.00 0.00 94 991.9
20260506114006 52 0 0.0 0.0 0.00 0.00 0.00 94 991.9
20260506113003 52 0 0.0 0.0 0.00 0.00 0.00 94 991.9
20260506112003 52 107 0.0 0.0 0.00 0.00 0.00 94 991.9
20260506111003 52 191 0.0 0.9 0.00 0.00 0.00 94 991.8
20260506110002 52 0 0.0 0.0 0.00 0.00 0.00 94 991.7
20260506105003 52 0 0.0 0.0 0.00 0.00 0.00 94 991.6
20260506104003 53 102 0.0 0.9 0.00 0.00 0.00 94 991.6
20260506103002 53 0 0.0 0.0 0.00 0.00 0.00 94 991.6
20260506102003 53 0 0.0 0.0 0.00 0.00 0.00 94 991.8
20260506101003 53 0 0.0 0.0 0.00 0.00 0.00 94 991.7
20260506100005 53 55 0.0 0.0 0.00 0.00 0.00 94 991.7
20260506095003 52 0 0.0 0.0 0.00 0.00 0.00 94 991.7
20260506094002 52 0 0.0 0.0 0.00 0.00 0.00 94 991.8
20260506093003 52 70 0.0 0.0 0.00 0.00 0.00 94 991.8
20260506092002 52 0 0.0 0.0 0.00 0.00 0.00 94 991.7
20260506091003 53 0 0.0 0.0 0.00 0.00 0.00 93 991.7
20260506090003 53 0 0.0 0.0 0.00 0.00 0.00 93 991.6
20260506085002 53 226 0.0 0.0 0.00 0.00 0.00 93 991.6
20260506084005 53 0 0.0 0.0 0.00 0.00 0.00 93 991.7
20260506083003 53 237 0.0 0.0 0.00 0.00 0.00 93 991.7
20260506082003 53 0 0.0 0.0 0.00 0.00 0.00 93 991.7
20260506081002 53 0 0.0 0.0 0.00 0.00 0.00 93 991.7